FW5744 Weather Reports


time (UTC)temp
C
wind
direction
speed
KPH
gust
KPH
rain 1hr
cm
rain 24hr
cm
rain mn
cm
humidity
%
barometer
mb
20260510225006 18 192 1.6 4.8 0.00 0.10 0.03 80 1013.7
20260510224516 18 175 1.6 4.8 0.00 0.10 0.03 80 1013.5
20260510224005 18 166 1.6 4.8 0.00 0.10 0.03 80 1013.5
20260510223504 18 138 0.0 4.8 0.00 0.10 0.03 79 1013.5
20260510223005 18 128 1.6 4.8 0.00 0.10 0.03 79 1013.6
20260510222510 18 147 0.0 3.2 0.00 0.10 0.03 79 1013.6
20260510222005 18 141 0.0 0.0 0.00 0.10 0.03 79 1013.4
20260510221513 18 139 0.0 1.6 0.00 0.10 0.03 79 1013.5
20260510221005 18 139 0.0 3.2 0.00 0.10 0.03 79 1013.6
20260510220505 18 138 0.0 3.2 0.00 0.10 0.03 79 1013.4
20260510220009 18 152 0.0 3.2 0.00 0.10 0.03 80 1013.4
20260510215505 18 146 0.0 0.0 0.00 0.18 0.03 80 1013.4
20260510215003 18 147 0.0 0.0 0.00 0.18 0.03 79 1013.4
20260510214503 18 138 0.0 0.0 0.00 0.18 0.03 79 1013.3
20260510214003 18 74 0.0 0.0 0.00 0.18 0.03 80 1013.2
20260510213505 18 74 0.0 4.8 0.00 0.18 0.03 80 1013.2
20260510213003 18 359 0.0 4.8 0.00 0.18 0.03 80 1013.1
20260510212502 18 111 0.0 4.8 0.00 0.18 0.03 80 1013.0
20260510212004 18 354 0.0 4.8 0.00 0.18 0.03 80 1012.9
20260510211504 18 70 1.6 8.0 0.00 0.18 0.03 79 1012.9
20260510211002 18 126 3.2 8.0 0.00 0.18 0.03 79 1012.7
20260510210504 18 104 1.6 12.9 0.00 0.18 0.03 78 1012.7
20260510210002 18 133 4.8 14.5 0.00 0.18 0.03 78 1012.6
20260510205502 18 165 8.0 14.5 0.00 0.18 0.03 77 1012.6
20260510205002 18 162 6.4 16.1 0.00 0.18 0.03 76 1012.6
20260510204502 18 149 6.4 16.1 0.00 0.18 0.03 75 1012.5
20260510204100 19 181 6.4 16.1 0.00 0.18 0.03 75 1012.5
20260510203601 19 189 6.4 17.7 0.00 0.18 0.03 74 1012.4
20260510203101 20 172 9.7 17.7 0.00 0.18 0.03 73 1012.3
20260510202600 21 166 6.4 14.5 0.00 0.18 0.03 73 1012.2
20260510202100 21 153 8.0 14.5 0.00 0.18 0.03 72 1012.2
20260510201602 22 203 3.2 8.0 0.00 0.18 0.03 71 1012.2
20260510201102 22 160 3.2 9.7 0.00 0.18 0.03 69 1012.2
20260510200600 22 172 3.2 12.9 0.00 0.18 0.03 69 1012.2
20260510200100 22 160 4.8 12.9 0.00 0.18 0.03 69 1012.2
20260510195601 22 204 4.8 8.0 0.00 0.18 0.03 69 1012.3
20260510195103 22 218 1.6 14.5 0.00 0.18 0.03 69 1012.4
20260510194558 22 244 1.6 14.5 0.00 0.18 0.03 67 1012.4
20260510194059 23 128 4.8 12.9 0.00 0.18 0.03 66 1012.4
20260510193556 23 149 4.8 14.5 0.00 0.18 0.03 66 1012.4
20260510193105 24 244 6.4 17.7 0.00 0.18 0.03 57 1012.2
20260510192554 24 235 6.4 17.7 0.00 0.18 0.03 58 1012.3
20260510192052 23 264 9.7 17.7 0.00 0.18 0.03 60 1012.4
20260510191558 23 310 4.8 17.7 0.00 0.18 0.03 62 1012.4
20260510191052 23 297 3.2 12.9 0.00 0.18 0.03 64 1012.4
20260510190552 22 216 4.8 20.9 0.00 0.18 0.03 65 1012.5
20260510190053 22 239 12.9 24.1 0.00 0.18 0.03 64 1012.7
20260510185549 22 233 16.1 24.1 0.00 0.28 0.03 63 1012.8
20260510185049 22 275 4.8 14.5 0.00 0.28 0.03 64 1012.6
20260510184549 22 249 4.8 17.7 0.00 0.28 0.03 62 1012.6
20260510184051 22 285 8.0 17.7 0.00 0.28 0.03 62 1012.6
20260510183547 22 359 6.4 19.3 0.00 0.28 0.03 62 1012.6
20260510183051 22 354 8.0 19.3 0.00 0.28 0.03 61 1012.8
20260510182550 22 293 6.4 16.1 0.00 0.28 0.03 63 1012.8
20260510182050 22 333 4.8 17.7 0.00 0.28 0.03 61 1012.8
20260510181545 23 244 8.0 17.7 0.00 0.28 0.03 64 1012.7
20260510181043 22 235 4.8 12.9 0.00 0.28 0.03 64 1012.9
20260510180542 22 213 6.4 16.1 0.00 0.28 0.03 65 1012.8
20260510180049 22 217 4.8 16.1 0.00 0.28 0.03 64 1012.8
20260510175540 22 359 8.0 14.5 0.00 0.28 0.03 66 1012.8
20260510175040 22 359 9.7 16.1 0.00 0.28 0.03 65 1012.8
20260510174541 22 256 4.8 16.1 0.00 0.28 0.03 66 1012.8
20260510174038 22 167 6.4 16.1 0.00 0.28 0.03 66 1012.8
20260510173537 22 179 6.4 12.9 0.00 0.28 0.03 67 1012.8
20260510173036 22 359 1.6 14.5 0.00 0.28 0.03 65 1012.7
20260510172535 21 234 8.0 14.5 0.00 0.28 0.03 67 1012.8
20260510172034 21 227 3.2 9.7 0.00 0.28 0.03 70 1012.6
20260510171532 21 16 0.0 9.7 0.00 0.28 0.03 72 1012.8
20260510171030 21 200 3.2 14.5 0.00 0.28 0.03 73 1012.8
20260510170529 20 359 8.0 14.5 0.00 0.28 0.03 73 1012.9
20260510170034 20 191 4.8 12.9 0.00 0.28 0.03 74 1013.0
20260510165528 20 359 1.6 9.7 0.00 0.28 0.03 74 1013.0
20260510165029 20 188 3.2 9.7 0.00 0.28 0.03 76 1013.0
20260510164543 19 234 3.2 9.7 0.00 0.28 0.03 77 1013.0
20260510164024 18 215 4.8 9.7 0.00 0.28 0.03 79 1013.1
20260510163524 18 152 3.2 12.9 0.00 0.28 0.03 78 1013.1
20260510163021 18 245 3.2 12.9 0.00 0.28 0.03 80 1013.2
20260510162519 17 359 1.6 8.0 0.00 0.28 0.03 81 1013.1
20260510162019 17 359 1.6 8.0 0.00 0.28 0.03 82 1013.1
20260510161519 17 54 3.2 14.5 0.00 0.28 0.03 81 1013.3
20260510161017 17 267 9.7 14.5 0.00 0.28 0.03 82 1013.3
20260510160517 17 359 3.2 11.3 0.00 0.28 0.03 83 1013.4
20260510160014 17 253 4.8 11.3 0.00 0.28 0.03 84 1013.4
20260510155514 16 181 3.2 9.7 0.00 0.28 0.03 85 1013.4
20260510155013 16 213 1.6 9.7 0.00 0.28 0.03 88 1013.4
20260510154512 16 256 0.0 6.4 0.00 0.28 0.03 89 1013.4
20260510154010 15 271 1.6 8.0 0.00 0.28 0.03 89 1013.5
20260510153509 15 8 1.6 6.4 0.00 0.28 0.03 90 1013.6
20260510153011 15 237 1.6 8.0 0.00 0.28 0.03 91 1013.6
20260510152508 15 359 1.6 8.0 0.00 0.28 0.03 92 1013.8
20260510152005 14 206 3.2 6.4 0.00 0.28 0.03 93 1013.6
20260510151505 14 359 1.6 6.4 0.00 0.28 0.03 94 1013.4
20260510151003 13 349 1.6 8.0 0.00 0.28 0.03 94 1013.5
20260510150502 13 359 3.2 8.0 0.00 0.28 0.03 94 1013.5
20260510150002 13 239 3.2 8.0 0.00 0.28 0.03 94 1013.6
20260510145505 13 359 4.8 8.0 0.00 0.28 0.03 95 1013.6
20260510145002 13 228 3.2 9.7 0.00 0.28 0.03 95 1013.6
20260510144600 13 359 4.8 9.7 0.00 0.28 0.03 96 1013.5
20260510144059 13 122 1.6 9.7 0.00 0.28 0.03 96 1013.5
20260510143557 13 359 4.8 9.7 0.00 0.28 0.03 96 1013.4
20260510143058 13 137 3.2 8.0 0.00 0.28 0.03 96 1013.4
20260510142557 13 359 3.2 8.0 0.00 0.28 0.03 96 1013.4
20260510142056 12 243 3.2 6.4 0.00 0.28 0.03 96 1013.5
20260510141555 12 212 1.6 9.7 0.00 0.28 0.03 96 1013.5
20260510141055 12 160 4.8 9.7 0.00 0.28 0.03 96 1013.6
20260510140559 12 359 3.2 8.0 0.00 0.28 0.03 96 1013.6
20260510140055 12 157 3.2 11.3 0.00 0.28 0.03 96 1013.5
20260510135554 12 178 3.2 8.0 0.00 0.28 0.03 96 1013.5
20260510135054 12 135 3.2 8.0 0.00 0.28 0.03 96 1013.6
20260510134554 12 179 1.6 9.7 0.00 0.28 0.03 96 1013.5
20260510134057 12 359 3.2 8.0 0.00 0.28 0.03 96 1013.4
20260510133555 12 172 4.8 8.0 0.00 0.28 0.03 97 1013.4
20260510133057 12 359 3.2 8.0 0.00 0.28 0.03 96 1013.3
20260510132551 12 359 4.8 9.7 0.00 0.28 0.03 96 1013.3
20260510132053 12 95 1.6 4.8 0.00 0.28 0.03 96 1013.4
20260510131555 12 162 1.6 6.4 0.00 0.28 0.03 96 1013.3
20260510131049 12 154 3.2 6.4 0.00 0.28 0.03 96 1013.2
20260510130552 12 132 3.2 4.8 0.00 0.28 0.03 96 1013.2
20260510130048 12 359 1.6 6.4 0.00 0.28 0.03 96 1013.0
20260510125546 12 359 1.6 8.0 0.00 0.28 0.03 96 1012.8
20260510125047 12 359 3.2 9.7 0.00 0.28 0.03 96 1012.8
20260510124607 12 359 1.6 6.4 0.00 0.28 0.03 96 1012.7
20260510124046 12 201 3.2 6.4 0.00 0.28 0.03 97 1012.7
20260510123543 12 359 1.6 6.4 0.00 0.28 0.03 96 1012.6
20260510123043 12 149 3.2 6.4 0.00 0.28 0.03 96 1012.7
20260510122548 12 133 1.6 6.4 0.00 0.28 0.03 96 1012.7
20260510122043 12 359 1.6 6.4 0.00 0.28 0.03 96 1012.7
20260510121544 12 359 1.6 6.4 0.00 0.28 0.03 96 1012.6
20260510121043 12 223 1.6 6.4 0.00 0.28 0.03 96 1012.7
20260510120543 12 245 1.6 6.4 0.00 0.28 0.03 96 1012.6
20260510120042 12 226 1.6 4.8 0.00 0.28 0.03 96 1012.6
20260510115541 11 235 1.6 4.8 0.00 0.28 0.03 96 1012.4
20260510115041 11 146 1.6 4.8 0.00 0.28 0.03 96 1012.4
20260510114543 11 359 0.0 3.2 0.00 0.28 0.03 96 1012.3
20260510114040 11 168 0.0 4.8 0.00 0.28 0.03 96 1012.3
20260510113542 11 359 1.6 4.8 0.00 0.28 0.03 96 1012.4
20260510113039 11 160 0.0 8.0 0.00 0.28 0.03 96 1012.3
20260510112538 11 172 3.2 8.0 0.00 0.28 0.03 96 1012.2
20260510112039 11 133 1.6 8.0 0.00 0.28 0.03 96 1012.2
20260510111559 11 151 3.2 8.0 0.00 0.28 0.03 96 1012.3
20260510111038 11 359 3.2 6.4 0.00 0.28 0.03 97 1012.2
20260510110538 11 152 1.6 6.4 0.00 0.28 0.03 96 1012.1
20260510110037 11 71 0.0 6.4 0.00 0.28 0.03 96 1011.9
20260510105537 11 75 3.2 6.4 0.00 0.28 0.03 96 1011.8
20260510105037 11 79 0.0 4.8 0.00 0.28 0.03 96 1011.7
20260510104542 11 83 1.6 4.8 0.00 0.28 0.03 96 1011.7
20260510104035 11 91 0.0 4.8 0.00 0.28 0.03 96 1011.9
20260510103535 11 113 1.6 4.8 0.00 0.28 0.03 96 1011.8
20260510103037 11 25 1.6 6.4 0.00 0.28 0.03 96 1011.8
20260510102535 11 70 3.2 6.4 0.00 0.28 0.03 96 1011.9
20260510102034 11 4 1.6 6.4 0.00 0.28 0.03 96 1011.9
20260510101538 11 48 1.6 6.4 0.00 0.28 0.03 96 1011.8
20260510101038 11 21 1.6 6.4 0.00 0.28 0.03 96 1011.8
20260510100534 11 54 1.6 4.8 0.00 0.28 0.03 96 1011.7
20260510100035 11 49 1.6 6.4 0.00 0.28 0.03 96 1011.8
20260510095534 11 15 1.6 6.4 0.00 0.28 0.03 96 1011.8
20260510095036 11 39 1.6 8.0 0.00 0.28 0.03 96 1011.8
20260510094533 11 23 1.6 9.7 0.00 0.28 0.03 96 1011.8
20260510094032 11 25 4.8 9.7 0.00 0.28 0.03 96 1011.8
20260510093532 11 339 3.2 6.4 0.00 0.28 0.03 96 1011.9
20260510093033 11 10 3.2 9.7 0.00 0.28 0.03 96 1012.0
20260510092533 11 21 6.4 9.7 0.00 0.28 0.03 96 1012.0
20260510092032 11 54 3.2 12.9 0.00 0.28 0.03 96 1012.0
20260510091549 11 359 4.8 12.9 0.00 0.28 0.03 96 1012.1
20260510091031 11 4 6.4 12.9 0.00 0.28 0.03 96 1012.1
20260510090533 11 9 4.8 9.7 0.00 0.28 0.03 96 1012.2
20260510090033 11 33 4.8 9.7 0.00 0.28 0.03 96 1012.2
20260510085530 11 27 3.2 8.0 0.00 0.28 0.03 96 1012.2
20260510085029 11 67 3.2 14.5 0.03 0.28 0.03 96 1011.8
20260510084529 11 31 6.4 14.5 0.03 0.28 0.03 96 1012.0
20260510084028 11 29 3.2 8.0 0.03 0.28 0.03 96 1011.7
20260510083526 11 94 1.6 6.4 0.03 0.28 0.03 96 1011.4
20260510083025 11 72 1.6 4.8 0.03 0.28 0.03 96 1011.4
20260510082525 11 76 0.0 4.8 0.03 0.28 0.03 96 1011.4
20260510082025 11 86 1.6 9.7 0.03 0.28 0.03 96 1011.4
20260510081534 10 359 3.2 9.7 0.03 0.28 0.03 96 1011.4
20260510081023 10 8 0.0 0.0 0.03 0.28 0.03 96 1011.3
20260510080522 10 8 0.0 0.0 0.03 0.28 0.03 96 1011.3
20260510080027 10 4 0.0 0.0 0.03 0.28 0.03 96 1011.2
20260510075524 10 8 0.0 0.0 0.03 0.28 0.03 96 1011.2
20260510075022 10 8 0.0 0.0 0.00 0.25 0.00 96 1011.2
20260510074522 10 8 0.0 0.0 0.00 0.25 0.00 96 1011.1
20260510074023 10 8 0.0 0.0 0.00 0.25 0.00 96 1011.2
20260510073528 10 8 0.0 0.0 0.00 0.25 0.00 96 1011.0
20260510073032 10 8 0.0 3.2 0.00 0.25 0.00 96 1011.0
20260510072520 10 8 0.0 4.8 0.00 0.25 0.00 96 1011.0
20260510072020 10 23 1.6 4.8 0.00 0.25 0.00 96 1011.1
20260510071529 10 359 1.6 4.8 0.00 0.25 0.00 95 1011.2
20260510071019 9 20 1.6 4.8 0.00 0.25 0.00 95 1011.2
20260510070519 9 48 3.2 6.4 0.00 0.25 0.00 95 1011.0
20260510070024 9 14 1.6 6.4 0.00 0.25 0.00 95 1011.1
20260510065519 9 28 3.2 4.8 0.00 0.25 0.00 95 1011.0
20260510065019 9 27 1.6 4.8 0.00 0.25 0.00 95 1011.0
20260510064545 9 4 1.6 4.8 0.00 0.25 0.00 95 1010.9
20260510064016 9 359 0.0 0.0 0.00 0.25 0.00 95 1010.9
20260510063516 9 165 0.0 0.0 0.00 0.25 0.00 95 1010.9
20260510063019 9 164 0.0 0.0 0.00 0.25 0.00 95 1010.7
20260510062516 9 162 0.0 0.0 0.00 0.25 0.00 95 1010.9
20260510062015 9 166 0.0 0.0 0.00 0.25 0.00 95 1010.8
20260510061529 9 165 0.0 0.0 0.00 0.25 0.00 95 1010.9
20260510061015 9 168 0.0 0.0 0.00 0.25 0.00 94 1010.7
20260510060514 9 168 0.0 0.0 0.00 0.25 0.00 94 1010.9
20260510060026 9 164 0.0 0.0 0.00 0.25 0.00 94 1010.9
20260510055513 9 164 0.0 0.0 0.00 0.25 0.00 94 1010.8
20260510055012 9 168 0.0 0.0 0.00 0.25 0.00 94 1010.9
20260510054512 10 359 0.0 0.0 0.00 0.25 0.00 94 1011.0
20260510054010 10 167 0.0 0.0 0.00 0.25 0.00 94 1011.0
20260510053513 10 164 0.0 0.0 0.00 0.25 0.00 94 1011.1
20260510053010 10 168 0.0 0.0 0.00 0.25 0.00 94 1011.0
20260510052509 10 162 0.0 0.0 0.00 0.25 0.00 94 1011.0
20260510052010 10 163 0.0 0.0 0.00 0.25 0.00 94 1011.0
20260510051509 10 359 0.0 0.0 0.00 0.25 0.00 94 1011.1
20260510051007 10 164 0.0 0.0 0.00 0.25 0.00 94 1011.0
20260510050507 10 359 0.0 0.0 0.00 0.25 0.00 94 1011.1
20260510050007 10 359 0.0 0.0 0.00 0.25 0.00 94 1011.2
20260510045509 10 359 0.0 0.0 0.00 0.25 0.00 94 1011.2
20260510045010 10 359 0.0 0.0 0.00 0.25 0.00 94 1011.1
20260510044508 10 168 0.0 0.0 0.00 0.25 0.00 93 1011.3
20260510044010 10 165 0.0 0.0 0.00 0.25 0.00 94 1011.3
20260510043504 10 359 0.0 0.0 0.00 0.25 0.00 94 1011.3
20260510043005 10 163 0.0 0.0 0.00 0.25 0.00 94 1011.3
20260510042504 10 164 0.0 0.0 0.00 0.25 0.00 94 1011.4
20260510042007 10 164 0.0 0.0 0.00 0.25 0.00 94 1011.4
20260510041503 10 166 0.0 0.0 0.00 0.25 0.00 93 1011.3
20260510041003 10 166 0.0 0.0 0.00 0.25 0.00 93 1011.4
20260510040502 10 162 0.0 0.0 0.00 0.25 0.00 93 1011.3
20260510040003 10 165 0.0 0.0 0.00 0.25 0.00 93 1011.1
20260510035600 10 359 0.0 0.0 0.00 0.25 0.25 93 1011.0
20260510035101 10 163 0.0 0.0 0.00 0.25 0.25 93 1011.0
20260510034605 10 359 0.0 0.0 0.00 0.25 0.25 93 1011.0
20260510034059 10 166 0.0 0.0 0.00 0.25 0.25 93 1011.0
20260510033600 10 359 0.0 0.0 0.00 0.25 0.25 93 1011.0
20260510033059 11 359 0.0 0.0 0.00 0.25 0.25 93 1011.0
20260510032557 11 359 0.0 0.0 0.00 0.25 0.25 93 1010.9
20260510032059 11 164 0.0 0.0 0.00 0.25 0.25 93 1011.0
20260510031608 11 163 0.0 0.0 0.00 0.25 0.25 93 1011.1
20260510031056 11 359 0.0 0.0 0.00 0.25 0.25 93 1011.0
20260510030556 11 168 0.0 0.0 0.00 0.25 0.25 93 1011.1
20260510030104 11 359 0.0 0.0 0.00 0.25 0.25 93 1010.9
20260510025556 11 168 0.0 0.0 0.00 0.25 0.25 93 1010.9
20260510025056 11 164 0.0 0.0 0.00 0.25 0.25 93 1010.9
20260510024557 11 165 0.0 0.0 0.00 0.25 0.25 93 1011.0
20260510024055 11 166 0.0 0.0 0.00 0.25 0.25 92 1010.8
20260510023558 11 168 0.0 0.0 0.00 0.25 0.25 92 1010.8
20260510023054 11 164 0.0 0.0 0.00 0.25 0.25 92 1010.9
20260510022557 11 168 0.0 0.0 0.00 0.25 0.25 92 1010.9
20260510022056 11 168 0.0 0.0 0.00 0.25 0.25 92 1010.9
20260510021552 11 166 0.0 0.0 0.00 0.25 0.25 92 1010.8
20260510021052 11 165 0.0 0.0 0.00 0.25 0.25 92 1011.0
20260510020552 11 165 0.0 0.0 0.00 0.25 0.25 92 1011.0
20260510020052 11 128 0.0 0.0 0.00 0.25 0.25 92 1010.9
20260510015552 11 131 0.0 0.0 0.00 0.25 0.25 91 1010.8
20260510015052 11 359 0.0 0.0 0.00 0.25 0.25 91 1010.9
20260510014551 11 127 0.0 0.0 0.00 0.25 0.25 91 1010.9
20260510014051 11 128 0.0 0.0 0.00 0.25 0.25 91 1010.9
20260510013550 11 359 0.0 0.0 0.00 0.25 0.25 91 1010.8
20260510013053 11 129 0.0 0.0 0.00 0.25 0.25 91 1010.9
20260510012548 11 131 0.0 0.0 0.00 0.25 0.25 91 1010.8
20260510012048 11 129 0.0 0.0 0.00 0.25 0.25 91 1010.8
20260510011548 12 131 0.0 0.0 0.00 0.25 0.25 90 1010.7
20260510011048 12 131 0.0 0.0 0.00 0.25 0.25 90 1010.8
20260510010546 12 128 0.0 0.0 0.00 0.25 0.25 90 1010.7
20260510010046 12 131 0.0 0.0 0.00 0.25 0.25 90 1010.5
20260510005546 12 131 0.0 0.0 0.00 0.25 0.25 90 1010.6
20260510005046 12 128 0.0 0.0 0.00 0.25 0.25 90 1010.4
20260510004546 12 128 0.0 0.0 0.00 0.25 0.25 90 1010.4
20260510004046 12 131 0.0 0.0 0.00 0.25 0.25 90 1010.3
20260510003554 12 129 0.0 0.0 0.00 0.25 0.25 89 1010.4
20260510003054 12 359 0.0 0.0 0.00 0.25 0.25 89 1010.4
20260510002546 12 128 0.0 0.0 0.00 0.25 0.25 89 1010.4
20260510002044 12 129 0.0 0.0 0.00 0.25 0.25 88 1010.5
20260510001546 12 129 0.0 0.0 0.00 0.25 0.25 88 1010.4
20260510001048 12 129 0.0 0.0 0.00 0.25 0.25 88 1010.4
20260510000544 13 129 0.0 0.0 0.00 0.25 0.25 88 1010.2
20260510000044 13 129 0.0 0.0 0.00 0.25 0.25 88 1010.1
20260509235544 13 128 0.0 0.0 0.00 0.25 0.25 88 1010.2
20260509235043 13 128 0.0 3.2 0.00 0.25 0.25 88 1010.2
20260509234559 13 129 0.0 3.2 0.00 0.25 0.25 87 1010.2
20260509234044 13 110 0.0 0.0 0.00 0.25 0.25 87 1010.1
20260509233542 13 111 0.0 3.2 0.00 0.25 0.25 87 1009.9
20260509233050 13 112 1.6 4.8 0.00 0.25 0.25 87 1009.7
20260509232544 13 106 0.0 6.4 0.00 0.25 0.25 87 1009.8
20260509232041 13 359 1.6 4.8 0.00 0.25 0.25 88 1009.8
20260509231601 13 92 1.6 4.8 0.00 0.25 0.25 88 1009.9
20260509231045 13 86 1.6 4.8 0.00 0.25 0.25 88 1009.9
20260509230541 13 77 1.6 4.8 0.05 0.25 0.25 88 1010.0
20260509230041 13 123 0.0 4.8 0.08 0.25 0.25 88 1010.1
20260509225540 13 123 1.6 6.4 0.08 0.25 0.25 88 1010.1
20260509225040 13 116 1.6 6.4 0.10 0.25 0.25 87 1010.1